THOR ABLESTAR DEB, 1521

Orbit data source: Space-Track

THOR ABLESTAR DEB, 1521 is space debris in LEO originally from a launch on Fri, 13 Aug 1965 UTC launched from the Air Force Western Test Range (AFWTR). Debris objects in space refer to the collection of defunct objects orbiting the Earth. Examples of debris include non-operational satellites, rocket bodies, and fragments generated from explosions, collisions, or faulty payload assembly.

Loading next visibility...
Identifier
1521, 1965-065K
Orbit
LEO
Country
Flag of USUS
Related business
Manufacturer
NRL
Mission
Spacecraft
Bus & Motor
Unknown
Mass
Unknown
Launch date (UTC)
1965-08-13 (60 years ago)
Launch vehicle
Unknown
Launch site
Air Force Western Test Range (AFWTR)
Object type
Payload
Rocket body
Debris
Shape & HBR
Unknown
Radar Cross Section
Small (<0.1 m²)

Expand to show TLE details & history
Last TLE update: 1 day ago

TLE from 1 day ago
0 THOR ABLESTAR DEB
1 01521U 65065K   25260.89605333  .00000031  00000-0  46448-4 0  9997
2 01521  90.0074 209.8626 0067959 308.4267 111.7602 13.33267512923128
Epoch: 2025-09-17T21:30Z
TLE epoch observation values (Epoch: 2025-09-17T21:30:19.007Z)
Latitude
60.99531°
Longitude
-109.79531°
Altitude
1,164.184 km
Speed
7.267 km/s
True Right ascension
13h 59m 23s
True Declination
60° 51' 26"
Sunlit
Object was in daylight at epoch
Visualization orbit readout
Latitude
Unknown
Longitude
Unknown
Altitude
Unknown
Speed
Unknown
Apparent Right ascension
Unknown
Apparent Declination
Unknown
Sunlit
N/A
Visualization observer readout
Local Sidereal Time
16:20:00
Azimuth
Unknown
Elevation
Unknown
Doppler factor
Unknown
Orbital elements
Apogee altitude
1,182.573 km
Perigee altitude
1,080.503 km
Semi-major axis
7,509.675 km
Eccentricity
0.0068
Inclination
90.0074°
RAAN
209.8626°
Arg. of periapsis
308.4267°
True anomaly
112.48117°
Mean anomaly
111.7602°
Eccentric anomaly
112.12091°
Mean motion
3.33512 °/min
Orbital period
107.94 mins
BSTAR
0.000046448
Loading maneuver chart data...
Computing Atmospheric mass density...
Loading historical data...
Loading historical data...
Loading historical data...
Loading historical data...
Loading historical data...
Loading historical data...
Loading historical data...

Documentation

Showing up to 5 results
|